Weather History for Chanute, KS

Change the Weather History Date:

Monday, March 31, 2014

  Actual Average Record
Temperature  
Mean Temperature 62 °F 52 °F  
Max Temperature 80 °F 63 °F 90 °F (1940)
Min Temperature 43 °F 41 °F 20 °F (1923)
Degree Days  
Heating Degree Days 3 13  
Month to date heating degree days 686 559  
Since 1 July heating degree days 4706 4131  
Cooling Degree Days 0 0  
Month to date cooling degree days 0 4  
Year to date cooling degree days 0 4  
Growing Degree Days 16 (Base 50)    
Moisture  
Dew Point 37 °F    
Average Humidity 35    
Maximum Humidity 53    
Minimum Humidity 16    
Precipitation  
Precipitation 0.00 in 0.11 in 2.10 in (1927)
Month to date precipitation 0.97 3.04  
Year to date precipitation 1.94 6.20  
Sea Level Pressure  
Sea Level Pressure 29.77 in    
Wind  
Wind Speed 23 mph (SW)    
Max Wind Speed 33 mph    
Max Gust Speed 47 mph    
Visibility 10 miles    
Events      
T = Trace of Precipitation, MM = Missing Value Source: NWS Daily Summary

Daily Weather History Graph

Daily Weather History Graph

Search for Another Location

Airport:

Trip Planner

Search our weather history database for the weather conditions in past years. The results will help you decide how hot, cold, wet, or windy it might be!

Date:

Astronomy

Mar. 31, 2014 Rise Set
Actual Time 7:08 AM CDT 7:43 PM CDT
Civil Twilight 6:42 AM CDT 8:10 PM CDT
Nautical Twilight 6:11 AM CDT 8:41 PM CDT
Astronomical Twilight 5:39 AM CDT 9:13 PM CDT
Moon 7:34 AM CDT (3/31) 9:01 PM CDT (3/31)
Length of Visible Light 13h 27m
Length of Day
12h 35m
New Moon, 1% of the Moon is Illuminated
Mar 31
New Moon
Apr 7
First Quarter
Apr 15
Full
Apr 22
Last Quarter
Apr 29
New

Hourly Weather History & Observations

Time (CDT) Temp. Dew Point Humidity Pressure Visibility Wind Dir Wind Speed Gust Speed Precip Events Conditions
12:52 AM 61.0 °F 37.9 °F 42% 29.82 in 10.0 mi South 20.7 mph - N/A   Clear
1:52 AM 60.1 °F 37.9 °F 44% 29.80 in 10.0 mi SSE 20.7 mph 27.6 mph N/A   Clear
2:52 AM 60.1 °F 37.9 °F 44% 29.77 in 10.0 mi South 19.6 mph 31.1 mph N/A   Clear
3:52 AM 60.1 °F 39.0 °F 46% 29.75 in 10.0 mi South 19.6 mph 29.9 mph N/A   Clear
4:52 AM 60.1 °F 39.9 °F 47% 29.71 in 10.0 mi South 27.6 mph 35.7 mph N/A   Clear
5:52 AM 60.1 °F 41.0 °F 49% 29.71 in 10.0 mi South 24.2 mph 34.5 mph N/A   Clear
6:52 AM 60.1 °F 43.0 °F 53% 29.69 in 10.0 mi South 28.8 mph 36.8 mph N/A   Clear
7:52 AM 59.0 °F 42.1 °F 53% 29.70 in 10.0 mi South 24.2 mph 33.4 mph N/A   Clear
8:52 AM 59.0 °F 42.1 °F 53% 29.71 in 10.0 mi South 20.7 mph 33.4 mph N/A   Clear
9:52 AM 61.0 °F 43.0 °F 52% 29.72 in 10.0 mi South 24.2 mph 33.4 mph N/A   Clear
10:52 AM 66.0 °F 46.0 °F 48% 29.73 in 10.0 mi South 29.9 mph 38.0 mph N/A   Clear
11:52 AM 66.9 °F 48.0 °F 51% 29.70 in 10.0 mi SSW 27.6 mph 36.8 mph N/A   Clear
12:52 PM 69.1 °F 48.9 °F 49% 29.68 in 10.0 mi SSW 26.5 mph 36.8 mph N/A   Clear
1:52 PM 72.0 °F 48.9 °F 44% 29.69 in 10.0 mi SSW 26.5 mph 36.8 mph N/A   Clear
2:52 PM 75.9 °F 50.0 °F 40% 29.66 in 10.0 mi SSW 24.2 mph 32.2 mph N/A   Clear
3:52 PM 77.0 °F 48.9 °F 37% 29.65 in 10.0 mi SSW 24.2 mph 33.4 mph N/A   Partly Cloudy
4:23 PM 79.0 °F 26.1 °F 14% 29.69 in 10.0 mi West 18.4 mph 31.1 mph N/A   Clear
4:52 PM 77.0 °F 30.9 °F 19% 29.69 in 10.0 mi West 24.2 mph 38.0 mph N/A   Clear
5:52 PM 73.9 °F 25.0 °F 16% 29.73 in 10.0 mi West 25.3 mph 36.8 mph N/A   Clear
6:52 PM 70.0 °F 25.0 °F 18% 29.77 in 10.0 mi WNW 20.7 mph 34.5 mph N/A   Clear
7:52 PM 66.0 °F 24.1 °F 20% 29.81 in 10.0 mi NW 21.9 mph 31.1 mph N/A   Overcast
8:52 PM 61.0 °F 28.0 °F 29% 29.87 in 10.0 mi NW 12.7 mph - N/A   Overcast
9:42 PM 57.9 °F 26.1 °F 30% 29.94 in 10.0 mi NW 17.3 mph 27.6 mph N/A   Overcast
9:52 PM 57.0 °F 27.0 °F 32% 29.94 in 10.0 mi NW 17.3 mph 24.2 mph N/A   Overcast
10:52 PM 53.1 °F 25.0 °F 34% 29.97 in 10.0 mi NW 18.4 mph 28.8 mph N/A   Clear
11:52 PM 48.9 °F 23.0 °F 36% 29.99 in 10.0 mi NNW 18.4 mph 31.1 mph N/A   Clear